Year,Month,Day,Hour,Minute,Value (Times are PST for barometer in hPa)
2020,09,25,00,00,1001.76
2020,09,25,00,01,1001.85
2020,09,25,00,02,1001.73
2020,09,25,00,03,1001.69
2020,09,25,00,04,1001.73
2020,09,25,00,05,1001.69
2020,09,25,00,06,1001.63
2020,09,25,00,07,1001.69
2020,09,25,00,08,1001.66
2020,09,25,00,09,1001.65
2020,09,25,00,10,1001.49
2020,09,25,00,11,1001.49
2020,09,25,00,12,1001.51
2020,09,25,00,13,1001.36
2020,09,25,00,14,1001.29
2020,09,25,00,15,1001.38
2020,09,25,00,16,1001.22
2020,09,25,00,17,1001.19
2020,09,25,00,18,1001.22
2020,09,25,00,19,1001.25
2020,09,25,00,20,1001.19
2020,09,25,00,21,1001.22
2020,09,25,00,22,1001.08
2020,09,25,00,23,1001.12
2020,09,25,00,24,1001.02
2020,09,25,00,25,1000.98
2020,09,25,00,26,1000.95
2020,09,25,00,27,1000.88
2020,09,25,00,28,1000.88
2020,09,25,00,29,1000.94
2020,09,25,00,30,1000.78
2020,09,25,00,31,1000.75
2020,09,25,00,32,1000.84
2020,09,25,00,33,1000.71
2020,09,25,00,34,1000.71
2020,09,25,00,35,1000.61
2020,09,25,00,36,1000.64
2020,09,25,00,37,1000.58
2020,09,25,00,38,1000.51
2020,09,25,00,39,1000.54
2020,09,25,00,40,1000.44
2020,09,25,00,41,1000.44
2020,09,25,00,42,1000.44
2020,09,25,00,43,1000.51
2020,09,25,00,44,1000.51
2020,09,25,00,45,1000.44
2020,09,25,00,46,1000.44
2020,09,25,00,47,1000.44
2020,09,25,00,48,1000.41
2020,09,25,00,49,1000.48
2020,09,25,00,50,1000.44
2020,09,25,00,51,1000.41
2020,09,25,00,52,1000.48
2020,09,25,00,53,1000.41
2020,09,25,00,54,1000.31
2020,09,25,00,55,1000.40
2020,09,25,00,56,1000.21
2020,09,25,00,57,1000.34
2020,09,25,00,58,1000.40
2020,09,25,00,59,1000.27
2020,09,25,01,00,1000.33
2020,09,25,01,01,1000.17
2020,09,25,01,02,1000.11
2020,09,25,01,03,1000.31
2020,09,25,01,04,1000.23
2020,09,25,01,05,1000.07
2020,09,25,01,06,1000.07
2020,09,25,01,07,1000.07
2020,09,25,01,08,1000.03
2020,09,25,01,09,1000.00
2020,09,25,01,10,999.97
2020,09,25,01,11,1000.00
2020,09,25,01,12,1000.00
2020,09,25,01,13,1000.00
2020,09,25,01,14,999.97
2020,09,25,01,15,999.92
2020,09,25,01,16,999.80
2020,09,25,01,17,999.83
2020,09,25,01,18,999.80
2020,09,25,01,19,999.76
2020,09,25,01,20,999.63
2020,09,25,01,21,999.59
2020,09,25,01,22,999.66
2020,09,25,01,23,999.53
2020,09,25,01,24,999.49
2020,09,25,01,25,999.43
2020,09,25,01,26,999.53
2020,09,25,01,27,999.49
2020,09,25,01,28,999.49
2020,09,25,01,29,999.46
2020,09,25,01,30,999.56
2020,09,25,01,31,999.49
2020,09,25,01,32,999.46
2020,09,25,01,33,999.36
2020,09,25,01,34,999.36
2020,09,25,01,35,999.32
2020,09,25,01,36,999.32
2020,09,25,01,37,999.22
2020,09,25,01,38,999.32
2020,09,25,01,39,999.19
2020,09,25,01,40,999.19
2020,09,25,01,41,999.22
2020,09,25,01,42,999.19
2020,09,25,01,43,999.26
2020,09,25,01,44,999.12
2020,09,25,01,45,999.12
2020,09,25,01,46,999.09
2020,09,25,01,47,999.19
2020,09,25,01,48,999.19
2020,09,25,01,49,999.12
2020,09,25,01,50,999.15
2020,09,25,01,51,999.19
2020,09,25,01,52,999.22
2020,09,25,01,53,999.09
2020,09,25,01,54,999.02
2020,09,25,01,55,999.02
2020,09,25,01,56,998.95
2020,09,25,01,57,999.02
2020,09,25,01,58,999.05
2020,09,25,01,59,999.09
2020,09,25,02,00,998.95
2020,09,25,02,01,998.99
2020,09,25,02,02,998.99
2020,09,25,02,03,999.02
2020,09,25,02,04,998.99
2020,09,25,02,05,999.05
2020,09,25,02,06,998.95
2020,09,25,02,07,998.82
2020,09,25,02,08,998.71
2020,09,25,02,09,998.71
2020,09,25,02,10,998.71
2020,09,25,02,11,998.71
2020,09,25,02,12,998.58
2020,09,25,02,13,998.58
2020,09,25,02,14,998.61
2020,09,25,02,15,998.71
2020,09,25,02,16,998.58
2020,09,25,02,17,998.44
2020,09,25,02,18,998.51
2020,09,25,02,19,998.48
2020,09,25,02,20,998.58
2020,09,25,02,21,998.48
2020,09,25,02,22,998.51
2020,09,25,02,23,998.44
2020,09,25,02,24,998.48
2020,09,25,02,25,998.38
2020,09,25,02,26,998.38
2020,09,25,02,27,998.41
2020,09,25,02,28,998.27
2020,09,25,02,29,998.31
2020,09,25,02,30,998.24
2020,09,25,02,31,998.24
2020,09,25,02,32,998.17
2020,09,25,02,33,998.14
2020,09,25,02,34,998.21
2020,09,25,02,35,998.10
2020,09,25,02,36,998.14
2020,09,25,02,37,998.21
2020,09,25,02,38,998.07
2020,09,25,02,39,998.14
2020,09,25,02,40,998.07
2020,09,25,02,41,998.07
2020,09,25,02,42,998.00
2020,09,25,02,43,998.09
2020,09,25,02,44,997.90
2020,09,25,02,45,997.90
2020,09,25,02,46,997.97
2020,09,25,02,47,997.87
2020,09,25,02,48,997.87
2020,09,25,02,49,997.87
2020,09,25,02,50,997.80
2020,09,25,02,51,997.73
2020,09,25,02,52,997.79
2020,09,25,02,53,997.66
2020,09,25,02,54,997.77
2020,09,25,02,55,997.66
2020,09,25,02,56,997.73
2020,09,25,02,57,997.66
2020,09,25,02,58,997.77
2020,09,25,02,59,997.63
2020,09,25,03,00,997.70
2020,09,25,03,01,997.70
2020,09,25,03,02,997.66
2020,09,25,03,03,997.60
2020,09,25,03,04,997.53
2020,09,25,03,05,997.39
2020,09,25,03,06,997.43
2020,09,25,03,07,997.36
2020,09,25,03,08,997.29
2020,09,25,03,09,997.36
2020,09,25,03,10,997.22
2020,09,25,03,11,997.16
2020,09,25,03,12,997.02
2020,09,25,03,13,997.02
2020,09,25,03,14,997.09
2020,09,25,03,15,997.02
2020,09,25,03,16,997.09
2020,09,25,03,17,996.99
2020,09,25,03,18,997.05
2020,09,25,03,19,996.95
2020,09,25,03,20,996.89
2020,09,25,03,21,996.92
2020,09,25,03,22,996.92
2020,09,25,03,23,996.89
2020,09,25,03,24,996.85
2020,09,25,03,25,996.76
2020,09,25,03,26,996.89
2020,09,25,03,27,996.75
2020,09,25,03,28,996.68
2020,09,25,03,29,996.75
2020,09,25,03,30,996.65
2020,09,25,03,31,996.58
2020,09,25,03,32,996.55
2020,09,25,03,33,996.45
2020,09,25,03,34,996.41
2020,09,25,03,35,996.41
2020,09,25,03,36,996.34
2020,09,25,03,37,996.21
2020,09,25,03,38,996.21
2020,09,25,03,39,996.24
2020,09,25,03,40,996.23
2020,09,25,03,41,996.07
2020,09,25,03,42,996.07
2020,09,25,03,43,996.14
2020,09,25,03,44,996.20
2020,09,25,03,45,996.04
2020,09,25,03,46,996.17
2020,09,25,03,47,996.14
2020,09,25,03,48,996.04
2020,09,25,03,49,996.01
2020,09,25,03,50,995.94
2020,09,25,03,51,995.90
2020,09,25,03,52,995.77
2020,09,25,03,53,995.73
2020,09,25,03,54,995.77
2020,09,25,03,55,995.80
2020,09,25,03,56,995.87
2020,09,25,03,57,995.67
2020,09,25,03,58,995.67
2020,09,25,03,59,995.70
2020,09,25,04,00,995.63
2020,09,25,04,01,995.60
2020,09,25,04,02,995.60
2020,09,25,04,03,995.56
2020,09,25,04,04,995.53
2020,09,25,04,05,995.46
2020,09,25,04,06,995.50
2020,09,25,04,07,995.43
2020,09,25,04,08,995.46
2020,09,25,04,09,995.40
2020,09,25,04,10,995.50
2020,09,25,04,11,995.40
2020,09,25,04,12,995.43
2020,09,25,04,13,995.43
2020,09,25,04,14,995.40
2020,09,25,04,15,995.34
2020,09,25,04,16,995.46
2020,09,25,04,17,995.53
2020,09,25,04,18,995.43
2020,09,25,04,19,995.50
2020,09,25,04,20,995.43
2020,09,25,04,21,995.40
2020,09,25,04,22,995.43
2020,09,25,04,23,995.43
2020,09,25,04,24,995.40
2020,09,25,04,25,995.26
2020,09,25,04,26,995.33
2020,09,25,04,27,995.26
2020,09,25,04,28,995.33
2020,09,25,04,29,995.36
2020,09,25,04,30,995.40
2020,09,25,04,31,995.33
2020,09,25,04,32,995.33
2020,09,25,04,33,995.33
2020,09,25,04,34,995.36
2020,09,25,04,35,995.26
2020,09,25,04,36,995.29
2020,09,25,04,37,995.23
2020,09,25,04,38,995.26
2020,09,25,04,39,995.33
2020,09,25,04,40,995.26
2020,09,25,04,41,995.29
2020,09,25,04,42,995.26
2020,09,25,04,43,995.23
2020,09,25,04,44,995.33
2020,09,25,04,45,995.33
2020,09,25,04,46,995.26
2020,09,25,04,47,995.20
2020,09,25,04,48,995.33
2020,09,25,04,49,995.33
2020,09,25,04,50,995.29
2020,09,25,04,51,995.29
2020,09,25,04,52,995.33
2020,09,25,04,53,995.33
2020,09,25,04,54,995.33
2020,09,25,04,55,995.29
2020,09,25,04,56,995.29
2020,09,25,04,57,995.33
2020,09,25,04,58,995.26
2020,09,25,04,59,995.19
2020,09,25,05,00,995.23
2020,09,25,05,01,995.28
2020,09,25,05,02,995.12
2020,09,25,05,03,995.12
2020,09,25,05,04,995.12
2020,09,25,05,05,995.09
2020,09,25,05,06,994.99
2020,09,25,05,07,995.02
2020,09,25,05,08,995.09
2020,09,25,05,09,995.06
2020,09,25,05,10,995.02
2020,09,25,05,11,995.06
2020,09,25,05,12,994.92
2020,09,25,05,13,994.96
2020,09,25,05,14,994.96
2020,09,25,05,15,995.02
2020,09,25,05,16,995.02
2020,09,25,05,17,994.96
2020,09,25,05,18,995.06
2020,09,25,05,19,994.99
2020,09,25,05,20,994.96
2020,09,25,05,21,994.92
2020,09,25,05,22,995.06
2020,09,25,05,23,994.99
2020,09,25,05,24,994.96
2020,09,25,05,25,994.92
2020,09,25,05,26,994.96
2020,09,25,05,27,994.92
2020,09,25,05,28,994.99
2020,09,25,05,29,994.99
2020,09,25,05,30,994.89
2020,09,25,05,31,995.12
2020,09,25,05,32,995.06
2020,09,25,05,33,995.12
2020,09,25,05,34,995.09
2020,09,25,05,35,995.02
2020,09,25,05,36,994.96
2020,09,25,05,37,995.06
2020,09,25,05,38,995.09
2020,09,25,05,39,995.16
2020,09,25,05,40,995.12
2020,09,25,05,41,995.12
2020,09,25,05,42,995.12
2020,09,25,05,43,995.12
2020,09,25,05,44,995.26
2020,09,25,05,45,995.29
2020,09,25,05,46,995.33
2020,09,25,05,47,995.33
2020,09,25,05,48,995.36
2020,09,25,05,49,995.43
2020,09,25,05,50,995.43
2020,09,25,05,51,995.56
2020,09,25,05,52,995.53
2020,09,25,05,53,995.56
2020,09,25,05,54,995.56
2020,09,25,05,55,995.60
2020,09,25,05,56,995.60
2020,09,25,05,57,995.53
2020,09,25,05,58,995.43
2020,09,25,05,59,995.35
2020,09,25,06,00,995.23
2020,09,25,06,01,995.23
2020,09,25,06,02,995.23
2020,09,25,06,03,995.16
2020,09,25,06,04,995.16
2020,09,25,06,05,995.12
2020,09,25,06,06,995.23
2020,09,25,06,07,995.23
2020,09,25,06,08,995.12
2020,09,25,06,09,995.19
2020,09,25,06,10,995.12
2020,09,25,06,11,995.16
2020,09,25,06,12,995.09
2020,09,25,06,13,995.19
2020,09,25,06,14,995.16
2020,09,25,06,15,995.12
2020,09,25,06,16,995.09
2020,09,25,06,17,995.12
2020,09,25,06,18,995.12
2020,09,25,06,19,995.16
2020,09,25,06,20,995.16
2020,09,25,06,21,995.16
2020,09,25,06,22,995.16
2020,09,25,06,23,995.16
2020,09,25,06,24,995.12
2020,09,25,06,25,995.06
2020,09,25,06,26,995.06
2020,09,25,06,27,995.09
2020,09,25,06,28,995.06
2020,09,25,06,29,995.06
2020,09,25,06,30,995.12
2020,09,25,06,31,995.12
2020,09,25,06,32,995.16
2020,09,25,06,33,995.16
2020,09,25,06,34,995.12
2020,09,25,06,35,995.12
2020,09,25,06,36,995.12
2020,09,25,06,37,995.06
2020,09,25,06,38,995.16
2020,09,25,06,39,995.16
2020,09,25,06,40,995.26
2020,09,25,06,41,995.26
2020,09,25,06,42,995.29
2020,09,25,06,43,995.33
2020,09,25,06,44,995.36
2020,09,25,06,45,995.33
2020,09,25,06,46,995.33
2020,09,25,06,47,995.33
2020,09,25,06,48,995.40
2020,09,25,06,49,995.40
2020,09,25,06,50,995.43
2020,09,25,06,51,995.50
2020,09,25,06,52,995.46
2020,09,25,06,53,995.56
2020,09,25,06,54,995.56
2020,09,25,06,55,995.60
2020,09,25,06,56,995.67
2020,09,25,06,57,995.67
2020,09,25,06,58,995.73
2020,09,25,06,59,995.84
2020,09,25,07,00,995.87
2020,09,25,07,01,995.97
2020,09,25,07,02,996.01
2020,09,25,07,03,996.07
2020,09,25,07,04,996.07
2020,09,25,07,05,996.14
2020,09,25,07,06,996.14
2020,09,25,07,07,996.17
2020,09,25,07,08,996.14
2020,09,25,07,09,996.14
2020,09,25,07,10,996.14
2020,09,25,07,11,996.17
2020,09,25,07,12,996.24
2020,09,25,07,13,996.28
2020,09,25,07,14,996.38
2020,09,25,07,15,996.38
2020,09,25,07,16,996.45
2020,09,25,07,17,996.45
2020,09,25,07,18,996.51
2020,09,25,07,19,996.58
2020,09,25,07,20,996.55
2020,09,25,07,21,996.55
2020,09,25,07,22,996.55
2020,09,25,07,23,996.55
2020,09,25,07,24,996.58
2020,09,25,07,25,996.58
2020,09,25,07,26,996.55
2020,09,25,07,27,996.55
2020,09,25,07,28,996.61
2020,09,25,07,29,996.65
2020,09,25,07,30,996.65
2020,09,25,07,31,996.68
2020,09,25,07,32,996.65
2020,09,25,07,33,996.72
2020,09,25,07,34,996.68
2020,09,25,07,35,996.75
2020,09,25,07,36,996.78
2020,09,25,07,37,996.85
2020,09,25,07,38,996.89
2020,09,25,07,39,996.85
2020,09,25,07,40,996.89
2020,09,25,07,41,996.95
2020,09,25,07,42,996.92
2020,09,25,07,43,996.92
2020,09,25,07,44,997.02
2020,09,25,07,45,997.02
2020,09,25,07,46,997.05
2020,09,25,07,47,997.09
2020,09,25,07,48,997.12
2020,09,25,07,49,997.16
2020,09,25,07,50,997.16
2020,09,25,07,51,997.16
2020,09,25,07,52,997.22
2020,09,25,07,53,997.29
2020,09,25,07,54,997.29
2020,09,25,07,55,997.29
2020,09,25,07,56,997.36
2020,09,25,07,57,997.39
2020,09,25,07,58,997.43
2020,09,25,07,59,997.39
2020,09,25,08,00,997.50
2020,09,25,08,01,997.50
2020,09,25,08,02,997.50
2020,09,25,08,03,997.46
2020,09,25,08,04,997.53
2020,09,25,08,05,997.53
2020,09,25,08,06,997.56
2020,09,25,08,07,997.66
2020,09,25,08,08,997.70
2020,09,25,08,09,997.73
2020,09,25,08,10,997.77
2020,09,25,08,11,997.80
2020,09,25,08,12,997.80
2020,09,25,08,13,997.83
2020,09,25,08,14,997.80
2020,09,25,08,15,997.87
2020,09,25,08,16,997.90
2020,09,25,08,17,997.90
2020,09,25,08,18,998.00
2020,09,25,08,19,997.90
2020,09,25,08,20,998.00
2020,09,25,08,21,998.04
2020,09,25,08,22,998.07
2020,09,25,08,23,998.10
2020,09,25,08,24,998.14
2020,09,25,08,25,998.10
2020,09,25,08,26,998.17
2020,09,25,08,27,998.17
2020,09,25,08,28,998.14
2020,09,25,08,29,998.17
2020,09,25,08,30,998.17
2020,09,25,08,31,998.17
2020,09,25,08,32,998.07
2020,09,25,08,33,998.14
2020,09,25,08,34,998.17
2020,09,25,08,35,998.24
2020,09,25,08,36,998.27
2020,09,25,08,37,998.27
2020,09,25,08,38,998.27
2020,09,25,08,39,998.31
2020,09,25,08,40,998.31
2020,09,25,08,41,998.34
2020,09,25,08,42,998.34
2020,09,25,08,43,998.31
2020,09,25,08,44,998.27
2020,09,25,08,45,998.34
2020,09,25,08,46,998.38
2020,09,25,08,47,998.38
2020,09,25,08,48,998.34
2020,09,25,08,49,998.41
2020,09,25,08,50,998.44
2020,09,25,08,51,998.44
2020,09,25,08,52,998.44
2020,09,25,08,53,998.44
2020,09,25,08,54,998.48
2020,09,25,08,55,998.51
2020,09,25,08,56,998.58
2020,09,25,08,57,998.58
2020,09,25,08,58,998.61
2020,09,25,08,59,998.65
2020,09,25,09,00,998.71
2020,09,25,09,01,998.71
2020,09,25,09,02,998.71
2020,09,25,09,03,998.75
2020,09,25,09,04,998.78
2020,09,25,09,05,998.82
2020,09,25,09,06,998.85
2020,09,25,09,07,998.88
2020,09,25,09,08,998.92
2020,09,25,09,09,998.95
2020,09,25,09,10,998.95
2020,09,25,09,11,998.99
2020,09,25,09,12,999.02
2020,09,25,09,13,998.99
2020,09,25,09,14,999.02
2020,09,25,09,15,999.05
2020,09,25,09,16,999.12
2020,09,25,09,17,999.15
2020,09,25,09,18,999.15
2020,09,25,09,19,999.19
2020,09,25,09,20,999.22
2020,09,25,09,21,999.19
2020,09,25,09,22,999.22
2020,09,25,09,23,999.32
2020,09,25,09,24,999.32
2020,09,25,09,25,999.36
2020,09,25,09,26,999.43
2020,09,25,09,27,999.43
2020,09,25,09,28,999.46
2020,09,25,09,29,999.43
2020,09,25,09,30,999.49
2020,09,25,09,31,999.49
2020,09,25,09,32,999.53
2020,09,25,09,33,999.53
2020,09,25,09,34,999.59
2020,09,25,09,35,999.63
2020,09,25,09,36,999.70
2020,09,25,09,37,999.70
2020,09,25,09,38,999.70
2020,09,25,09,39,999.76
2020,09,25,09,40,999.73
2020,09,25,09,41,999.73
2020,09,25,09,42,999.80
2020,09,25,09,43,999.83
2020,09,25,09,44,999.87
2020,09,25,09,45,999.87
2020,09,25,09,46,999.93
2020,09,25,09,47,999.93
2020,09,25,09,48,999.97
2020,09,25,09,49,999.97
2020,09,25,09,50,999.97
2020,09,25,09,51,999.97
2020,09,25,09,52,1000.00
2020,09,25,09,53,1000.00
2020,09,25,09,54,1000.00
2020,09,25,09,55,1000.03
2020,09,25,09,56,1000.00
2020,09,25,09,57,1000.00
2020,09,25,09,58,999.93
2020,09,25,09,59,999.93
2020,09,25,10,00,999.93
2020,09,25,10,01,999.97
2020,09,25,10,02,999.97
2020,09,25,10,03,1000.00
2020,09,25,10,04,1000.10
2020,09,25,10,05,1000.14
2020,09,25,10,06,1000.17
2020,09,25,10,07,1000.20
2020,09,25,10,08,1000.27
2020,09,25,10,09,1000.34
2020,09,25,10,10,1000.31
2020,09,25,10,11,1000.37
2020,09,25,10,12,1000.37
2020,09,25,10,13,1000.41
2020,09,25,10,14,1000.44
2020,09,25,10,15,1000.48
2020,09,25,10,16,1000.48
2020,09,25,10,17,1000.54
2020,09,25,10,18,1000.58
2020,09,25,10,19,1000.64
2020,09,25,10,20,1000.71
2020,09,25,10,21,1000.75
2020,09,25,10,22,1000.71
2020,09,25,10,23,1000.78
2020,09,25,10,24,1000.78
2020,09,25,10,25,1000.78
2020,09,25,10,26,1000.78
2020,09,25,10,27,1000.78
2020,09,25,10,28,1000.81
2020,09,25,10,29,1000.78
2020,09,25,10,30,1000.85
2020,09,25,10,31,1000.85
2020,09,25,10,32,1000.88
2020,09,25,10,33,1000.88
2020,09,25,10,34,1000.92
2020,09,25,10,35,1000.95
2020,09,25,10,36,1000.95
2020,09,25,10,37,1000.95
2020,09,25,10,38,1000.95
2020,09,25,10,39,1000.98
2020,09,25,10,40,1000.98
2020,09,25,10,41,1001.08
2020,09,25,10,42,1001.15
2020,09,25,10,43,1001.15
2020,09,25,10,44,1001.15
2020,09,25,10,45,1001.12
2020,09,25,10,46,1001.12
2020,09,25,10,47,1001.12
2020,09,25,10,48,1001.15
2020,09,25,10,49,1001.15
2020,09,25,10,50,1001.19
2020,09,25,10,51,1001.22
2020,09,25,10,52,1001.25
2020,09,25,10,53,1001.25
2020,09,25,10,54,1001.29
2020,09,25,10,55,1001.29
2020,09,25,10,56,1001.29
2020,09,25,10,57,1001.32
2020,09,25,10,58,1001.29
2020,09,25,10,59,1001.29
2020,09,25,11,00,1001.29
2020,09,25,11,01,1001.29
2020,09,25,11,02,1001.36
2020,09,25,11,03,1001.32
2020,09,25,11,04,1001.32
2020,09,25,11,05,1001.39
2020,09,25,11,06,1001.42
2020,09,25,11,07,1001.49
2020,09,25,11,08,1001.52
2020,09,25,11,09,1001.52
2020,09,25,11,10,1001.49
2020,09,25,11,11,1001.56
2020,09,25,11,12,1001.56
2020,09,25,11,13,1001.52
2020,09,25,11,14,1001.56
2020,09,25,11,15,1001.56
2020,09,25,11,16,1001.56
2020,09,25,11,17,1001.59
2020,09,25,11,18,1001.56
2020,09,25,11,19,1001.56
2020,09,25,11,20,1001.56
2020,09,25,11,21,1001.52
2020,09,25,11,22,1001.52
2020,09,25,11,23,1001.52
2020,09,25,11,24,1001.52
2020,09,25,11,25,1001.59
2020,09,25,11,26,1001.56
2020,09,25,11,27,1001.59
2020,09,25,11,28,1001.59
2020,09,25,11,29,1001.63
2020,09,25,11,30,1001.66
2020,09,25,11,31,1001.66
2020,09,25,11,32,1001.69
2020,09,25,11,33,1001.69
2020,09,25,11,34,1001.69
2020,09,25,11,35,1001.73
2020,09,25,11,36,1001.76
2020,09,25,11,37,1001.76
2020,09,25,11,38,1001.80
2020,09,25,11,39,1001.86
2020,09,25,11,40,1001.86
2020,09,25,11,41,1001.86
2020,09,25,11,42,1001.90
2020,09,25,11,43,1001.90
2020,09,25,11,44,1001.90
2020,09,25,11,45,1001.90
2020,09,25,11,46,1001.86
2020,09,25,11,47,1001.90
2020,09,25,11,48,1001.90
2020,09,25,11,49,1001.93
2020,09,25,11,50,1001.93
2020,09,25,11,51,1001.93
2020,09,25,11,52,1001.93
2020,09,25,11,53,1001.93
2020,09,25,11,54,1001.93
2020,09,25,11,55,1001.97
2020,09,25,11,56,1002.03
2020,09,25,11,57,1002.00
2020,09,25,11,58,1002.00
2020,09,25,11,59,1002.03
2020,09,25,12,00,1002.03
2020,09,25,12,01,1002.07
2020,09,25,12,02,1002.10
2020,09,25,12,03,1002.13
2020,09,25,12,04,1002.17
2020,09,25,12,05,1002.17
2020,09,25,12,06,1002.17
2020,09,25,12,07,1002.24
2020,09,25,12,08,1002.24
2020,09,25,12,09,1002.27
2020,09,25,12,10,1002.27
2020,09,25,12,11,1002.24
2020,09,25,12,12,1002.27
2020,09,25,12,13,1002.34
2020,09,25,12,14,1002.34
2020,09,25,12,15,1002.34
2020,09,25,12,16,1002.37
2020,09,25,12,17,1002.41
2020,09,25,12,18,1002.37
2020,09,25,12,19,1002.37
2020,09,25,12,20,1002.44
2020,09,25,12,21,1002.47
2020,09,25,12,22,1002.47
2020,09,25,12,23,1002.51
2020,09,25,12,24,1002.51
2020,09,25,12,25,1002.54
2020,09,25,12,26,1002.54
2020,09,25,12,27,1002.61
2020,09,25,12,28,1002.64
2020,09,25,12,29,1002.68
2020,09,25,12,30,1002.68
2020,09,25,12,31,1002.68
2020,09,25,12,32,1002.64
2020,09,25,12,33,1002.68
2020,09,25,12,34,1002.64
2020,09,25,12,35,1002.71
2020,09,25,12,36,1002.74
2020,09,25,12,37,1002.78
2020,09,25,12,38,1002.78
2020,09,25,12,39,1002.78
2020,09,25,12,40,1002.78
2020,09,25,12,41,1002.78
2020,09,25,12,42,1002.85
2020,09,25,12,43,1002.91
2020,09,25,12,44,1002.88
2020,09,25,12,45,1002.91
2020,09,25,12,46,1002.91
2020,09,25,12,47,1002.95
2020,09,25,12,48,1002.98
2020,09,25,12,49,1003.05
2020,09,25,12,50,1003.12
2020,09,25,12,51,1003.08
2020,09,25,12,52,1003.12
2020,09,25,12,53,1003.15
2020,09,25,12,54,1003.18
2020,09,25,12,55,1003.18
2020,09,25,12,56,1003.18
2020,09,25,12,57,1003.22
2020,09,25,12,58,1003.18
2020,09,25,12,59,1003.25
2020,09,25,13,00,1003.25
2020,09,25,13,01,1003.25
2020,09,25,13,02,1003.25
2020,09,25,13,03,1003.32
2020,09,25,13,04,1003.35
2020,09,25,13,05,1003.39
2020,09,25,13,06,1003.39
2020,09,25,13,07,1003.42
2020,09,25,13,08,1003.49
2020,09,25,13,09,1003.49
2020,09,25,13,10,1003.56
2020,09,25,13,11,1003.52
2020,09,25,13,12,1003.59
2020,09,25,13,13,1003.59
2020,09,25,13,14,1003.59
2020,09,25,13,15,1003.56
2020,09,25,13,16,1003.62
2020,09,25,13,17,1003.62
2020,09,25,13,18,1003.69
2020,09,25,13,19,1003.66
2020,09,25,13,20,1003.76
2020,09,25,13,21,1003.76
2020,09,25,13,22,1003.76
2020,09,25,13,23,1003.79
2020,09,25,13,24,1003.83
2020,09,25,13,25,1003.79
2020,09,25,13,26,1003.83
2020,09,25,13,27,1003.83
2020,09,25,13,28,1003.83
2020,09,25,13,29,1003.86
2020,09,25,13,30,1003.83
2020,09,25,13,31,1003.90
2020,09,25,13,32,1003.90
2020,09,25,13,33,1003.96
2020,09,25,13,34,1003.93
2020,09,25,13,35,1003.96
2020,09,25,13,36,1003.96
2020,09,25,13,37,1004.00
2020,09,25,13,38,1004.03
2020,09,25,13,39,1004.03
2020,09,25,13,40,1004.06
2020,09,25,13,41,1004.03
2020,09,25,13,42,1004.00
2020,09,25,13,43,1003.96
2020,09,25,13,44,1004.00
2020,09,25,13,45,1004.03
2020,09,25,13,46,1004.06
2020,09,25,13,47,1004.03
2020,09,25,13,48,1004.06
2020,09,25,13,49,1004.06
2020,09,25,13,50,1004.06
2020,09,25,13,51,1004.06
2020,09,25,13,52,1004.06
2020,09,25,13,53,1004.06
2020,09,25,13,54,1004.06
2020,09,25,13,55,1004.10
2020,09,25,13,56,1004.13
2020,09,25,13,57,1004.10
2020,09,25,13,58,1004.10
2020,09,25,13,59,1004.06
2020,09,25,14,00,1004.10
2020,09,25,14,01,1004.06
2020,09,25,14,02,1004.10
2020,09,25,14,03,1004.17
2020,09,25,14,04,1004.17
2020,09,25,14,05,1004.20
2020,09,25,14,06,1004.17
2020,09,25,14,07,1004.17
2020,09,25,14,08,1004.20
2020,09,25,14,09,1004.17
2020,09,25,14,10,1004.17
2020,09,25,14,11,1004.17
2020,09,25,14,12,1004.17
2020,09,25,14,13,1004.20
2020,09,25,14,14,1004.20
2020,09,25,14,15,1004.23
2020,09,25,14,16,1004.20
2020,09,25,14,17,1004.20
2020,09,25,14,18,1004.17
2020,09,25,14,19,1004.20
2020,09,25,14,20,1004.20
2020,09,25,14,21,1004.23
2020,09,25,14,22,1004.23
2020,09,25,14,23,1004.27
2020,09,25,14,24,1004.27
2020,09,25,14,25,1004.30
2020,09,25,14,26,1004.30
2020,09,25,14,27,1004.34
2020,09,25,14,28,1004.30
2020,09,25,14,29,1004.37
2020,09,25,14,30,1004.37
2020,09,25,14,31,1004.40
2020,09,25,14,32,1004.40
2020,09,25,14,33,1004.40
2020,09,25,14,34,1004.37
2020,09,25,14,35,1004.37
2020,09,25,14,36,1004.37
2020,09,25,14,37,1004.44
2020,09,25,14,38,1004.47
2020,09,25,14,39,1004.47
2020,09,25,14,40,1004.47
2020,09,25,14,41,1004.54
2020,09,25,14,42,1004.57
2020,09,25,14,43,1004.61
2020,09,25,14,44,1004.57
2020,09,25,14,45,1004.57
2020,09,25,14,46,1004.61
2020,09,25,14,47,1004.57
2020,09,25,14,48,1004.57
2020,09,25,14,49,1004.61
2020,09,25,14,50,1004.57
2020,09,25,14,51,1004.61
2020,09,25,14,52,1004.64
2020,09,25,14,53,1004.64
2020,09,25,14,54,1004.71
2020,09,25,14,55,1004.71
2020,09,25,14,56,1004.71
2020,09,25,14,57,1004.67
2020,09,25,14,58,1004.67
2020,09,25,14,59,1004.67
2020,09,25,15,00,1004.67
2020,09,25,15,01,1004.71
2020,09,25,15,02,1004.71
2020,09,25,15,03,1004.71
2020,09,25,15,04,1004.74
2020,09,25,15,05,1004.78
2020,09,25,15,06,1004.78
2020,09,25,15,07,1004.74
2020,09,25,15,08,1004.78
2020,09,25,15,09,1004.81
2020,09,25,15,10,1004.78
2020,09,25,15,11,1004.78
2020,09,25,15,12,1004.78
2020,09,25,15,13,1004.81
2020,09,25,15,14,1004.81
2020,09,25,15,15,1004.81
2020,09,25,15,16,1004.81
2020,09,25,15,17,1004.84
2020,09,25,15,18,1004.84
2020,09,25,15,19,1004.84
2020,09,25,15,20,1004.84
2020,09,25,15,21,1004.84
2020,09,25,15,22,1004.88
2020,09,25,15,23,1004.88
2020,09,25,15,24,1004.95
2020,09,25,15,25,1004.91
2020,09,25,15,26,1004.98
2020,09,25,15,27,1005.01
2020,09,25,15,28,1004.98
2020,09,25,15,29,1005.05
2020,09,25,15,30,1004.98
2020,09,25,15,31,1005.05
2020,09,25,15,32,1005.01
2020,09,25,15,33,1005.01
2020,09,25,15,34,1005.01
2020,09,25,15,35,1005.01
2020,09,25,15,36,1005.05
2020,09,25,15,37,1005.08
2020,09,25,15,38,1005.05
2020,09,25,15,39,1005.11
2020,09,25,15,40,1005.08
2020,09,25,15,41,1005.11
2020,09,25,15,42,1005.11
2020,09,25,15,43,1005.15
2020,09,25,15,44,1005.11
2020,09,25,15,45,1005.15
2020,09,25,15,46,1005.18
2020,09,25,15,47,1005.22
2020,09,25,15,48,1005.25
2020,09,25,15,49,1005.25
2020,09,25,15,50,1005.25
2020,09,25,15,51,1005.28
2020,09,25,15,52,1005.28
2020,09,25,15,53,1005.32
2020,09,25,15,54,1005.32
2020,09,25,15,55,1005.35
2020,09,25,15,56,1005.39
2020,09,25,15,57,1005.42
2020,09,25,15,58,1005.45
2020,09,25,15,59,1005.49
2020,09,25,16,00,1005.52
2020,09,25,16,01,1005.55
2020,09,25,16,02,1005.55
2020,09,25,16,03,1005.66
2020,09,25,16,04,1005.62
2020,09,25,16,05,1005.69
2020,09,25,16,06,1005.76
2020,09,25,16,07,1005.72
2020,09,25,16,08,1005.72
2020,09,25,16,09,1005.69
2020,09,25,16,10,1005.76
2020,09,25,16,11,1005.79
2020,09,25,16,12,1005.79
2020,09,25,16,13,1005.83
2020,09,25,16,14,1005.86
2020,09,25,16,15,1005.83
2020,09,25,16,16,1005.89
2020,09,25,16,17,1005.89